Location: *
(43.4667°N, 11.6833°E)
Time: 05:55:59
(UTC+00:00)

Terra - Pass Details

Date: 19 July 2019
Orbit: 701 x 703 km, 98.2° (Epoch: 21 August)

Event Time Altitude Azimuth Distance (km) Brightness Sun altitude
Exits shadow 20:32:12 23° 122° (ESE) 1,467 2.9 -15.2°
Maximum altitude 20:34:34 39° 69° (ENE) 1,056 2.6 -15.4°
Drops below altitude 10° 20:38:59 10° 2° (N) 2,181 5.1 -15.9°
Sets 20:41:21 0° 355° (N) 3,103 6.1 -16.2°
